Stations météo

réclame
Mon MeteoGroup
Semmerzake, Belgique (6428): Température de l'air & dewpoint: 13.06.2019 11:00:00 - 19.06.2019 11:00:00 (CEST)Semmerzake, Belgique (6428): Vitesse du vent & gusts: 13.06.2019 11:00:00 - 19.06.2019 11:00:00 (CEST)Semmerzake, Belgique (6428): Direction du vent: 13.06.2019 11:00:00 - 19.06.2019 11:00:00 (CEST)Semmerzake, Belgique (6428): reduced air pressure: 13.06.2019 11:00:00 - 19.06.2019 11:00:00 (CEST)Semmerzake, Belgique (6428): visibility: 13.06.2019 11:00:00 - 19.06.2019 11:00:00 (CEST)
Date & Time tt [°C] td [°C] ff [km/h] ff [knt] fx [km/h] fx [knt] dd ppp [hPa] vv [km]
19.06.2019 11:00:00 19,0 14,6 4 2 - - N 1008,1 20
19.06.2019 10:00:00 18,2 14,6 11 6 22 12 SE 1007,5 20
19.06.2019 09:00:00 17,7 15,1 11 6 18 10 ESE 1007,0 19
19.06.2019 08:00:00 16,7 15,2 4 2 - - N 1007,5 15
19.06.2019 07:00:00 16,2 14,0 14 8 25 14 NNE 1007,0 15
19.06.2019 06:00:00 17,7 13,6 7 4 14 8 N 1007,8 18
19.06.2019 05:00:00 18,1 14,8 7 4 - - NNW 1008,2 9
19.06.2019 04:00:00 16,8 15,6 4 2 11 6 N 1008,1 10
19.06.2019 03:00:00 18,1 15,5 7 4 11 6 ESE 1008,2 14
19.06.2019 02:00:00 18,5 16,0 4 2 - - N 1009,0 12
19.06.2019 01:00:00 19,9 16,8 7 4 11 6 E 1009,5 13
19.06.2019 00:00:00 19,1 16,8 4 2 7 4 N 1010,5 15
18.06.2019 23:00:00 20,7 16,7 7 4 - - ENE 1010,7 20
18.06.2019 22:00:00 23,1 15,8 4 2 7 4 N 1010,7 20
18.06.2019 21:00:00 24,0 16,6 4 2 7 4 N 1011,2 20
18.06.2019 20:00:00 24,7 16,5 4 2 - - N 1011,2 20
18.06.2019 19:00:00 25,7 14,7 4 2 14 8 N 1011,5 20
18.06.2019 18:00:00 26,6 13,4 4 2 14 8 N 1011,7 20
18.06.2019 17:00:00 25,8 12,7 7 4 - - ESE 1012,6 20
18.06.2019 16:00:00 26,3 13,6 4 2 14 8 N 1013,1 20
18.06.2019 15:00:00 25,3 13,4 11 6 18 10 ESE 1013,7 20
18.06.2019 14:00:00 24,9 14,4 4 2 - - N 1014,2 20
18.06.2019 13:00:00 24,2 15,6 4 2 11 6 N 1014,7 20
18.06.2019 12:00:00 22,7 15,3 4 2 11 6 N 1015,1 18
18.06.2019 11:00:00 21,3 14,9 4 2 - - N 1015,5 3,0
18.06.2019 10:00:00 19,6 13,5 4 2 7 4 N 1015,7 16
18.06.2019 09:00:00 17,7 13,3 4 2 7 4 N 1016,2 16
18.06.2019 08:00:00 16,2 12,3 4 2 - - N 1016,2 14
18.06.2019 07:00:00 14,6 12,4 4 2 4 2 N 1016,3 9
18.06.2019 06:00:00 12,6 11,5 4 2 7 4 N 1016,3 6
18.06.2019 05:00:00 13,2 12,1 4 2 - - N 1016,6 5
18.06.2019 04:00:00 13,1 12,1 4 2 4 2 N 1016,7 5
18.06.2019 03:00:00 14,0 12,6 4 2 7 4 N 1017,1 6
18.06.2019 02:00:00 14,8 13,7 4 2 - - N 1017,6 5
18.06.2019 01:00:00 15,6 14,0 4 2 11 6 N 1017,6 10
18.06.2019 00:00:00 16,7 14,2 7 4 11 6 N 1017,5 14
17.06.2019 23:00:00 17,9 15,1 7 4 - - N 1017,2 17
17.06.2019 22:00:00 19,6 15,0 4 2 11 6 N 1017,2 20
17.06.2019 21:00:00 22,7 12,8 4 2 14 8 N 1017,1 20
17.06.2019 20:00:00 23,5 12,4 7 4 - - S 1017,2 20
17.06.2019 19:00:00 24,2 13,1 7 4 18 10 SSW 1017,6 20
17.06.2019 18:00:00 24,6 12,1 7 4 22 12 SW 1017,8 20
17.06.2019 17:00:00 24,3 13,3 14 8 - - SSW 1018,3 20
17.06.2019 16:00:00 23,6 12,1 7 4 18 10 SW 1018,7 20
17.06.2019 15:00:00 23,6 12,6 11 6 22 12 SSW 1019,2 20
17.06.2019 14:00:00 23,2 13,4 7 4 - - SSW 1019,5 20
17.06.2019 13:00:00 22,6 13,2 7 4 22 12 S 1019,7 20
17.06.2019 12:00:00 22,1 13,2 7 4 18 10 SW 1020,2 20
17.06.2019 11:00:00 21,2 12,0 7 4 - - SW 1020,5 20
17.06.2019 10:00:00 19,8 14,0 7 4 14 8 SSW 1020,7 20
17.06.2019 09:00:00 19,1 14,8 7 4 14 8 S 1020,7 20
17.06.2019 08:00:00 16,0 13,6 7 4 - - S 1020,6 19
17.06.2019 07:00:00 14,6 13,1 7 4 14 8 S 1020,7 18
17.06.2019 06:00:00 14,0 12,9 7 4 11 6 SSE 1020,5 13
17.06.2019 05:00:00 13,8 13,0 7 4 - - SE 1020,5 12
17.06.2019 04:00:00 13,3 12,7 7 4 7 4 SE 1020,7 12
17.06.2019 03:00:00 13,6 12,5 4 2 7 4 N 1021,1 20
17.06.2019 02:00:00 12,8 12,1 4 2 - - N 1021,2 7
17.06.2019 01:00:00 13,8 12,5 4 2 7 4 N 1021,2 20
17.06.2019 00:00:00 15,9 12,9 4 2 7 4 N 1021,3 20
16.06.2019 23:00:00 16,0 12,8 4 2 - - N 1021,2 20
16.06.2019 22:00:00 17,7 13,2 4 2 7 4 N 1021,0 20
16.06.2019 21:00:00 18,8 13,6 7 4 18 10 N 1020,8 20
16.06.2019 20:00:00 20,4 12,7 7 4 - - SW 1020,7 20
16.06.2019 19:00:00 20,2 13,5 11 6 22 12 SSW 1020,7 20
16.06.2019 18:00:00 20,3 12,8 11 6 22 12 SW 1020,6 20
16.06.2019 17:00:00 17,8 14,1 11 6 - - WSW 1021,0 20
16.06.2019 16:00:00 20,8 11,4 14 8 29 16 SSW 1020,5 20
16.06.2019 15:00:00 20,1 12,2 11 6 32 18 SSW 1020,5 20
16.06.2019 14:00:00 20,2 11,7 18 10 - - SW 1020,3 19
16.06.2019 13:00:00 18,3 11,8 14 8 32 18 SW 1020,5 20
16.06.2019 12:00:00 17,7 11,6 14 8 29 16 SSW 1020,7 19
16.06.2019 11:00:00 15,8 12,6 14 8 - - SSW 1020,3 20
16.06.2019 10:00:00 15,4 12,6 14 8 29 16 SSW 1020,2 19
16.06.2019 09:00:00 15,0 12,5 18 10 29 16 SW 1019,8 18
16.06.2019 08:00:00 14,8 12,2 18 10 - - SSW 1019,2 18
16.06.2019 07:00:00 13,6 11,4 11 6 22 12 SSW 1018,7 19
16.06.2019 06:00:00 13,1 11,0 11 6 22 12 SSW 1018,6 20
16.06.2019 05:00:00 12,3 10,3 11 6 - - S 1018,2 20
16.06.2019 04:00:00 12,5 10,3 11 6 14 8 SSW 1018,0 20
16.06.2019 03:00:00 13,3 10,6 7 4 14 8 S 1017,8 20
16.06.2019 02:00:00 13,8 10,7 7 4 - - SSW 1017,7 20
16.06.2019 01:00:00 14,5 11,2 7 4 11 6 SSW 1017,5 20
16.06.2019 00:00:00 15,6 12,6 4 2 7 4 N 1017,1 20
15.06.2019 23:00:00 15,8 13,9 4 2 - - N 1016,7 19
15.06.2019 22:00:00 16,7 13,9 7 4 11 6 NE 1016,3 20
15.06.2019 21:00:00 17,7 13,6 4 2 7 4 N 1016,0 20
15.06.2019 20:00:00 17,5 13,0 4 2 - - N 1015,8 20
15.06.2019 19:00:00 19,0 13,1 4 2 11 6 N 1015,8 17
15.06.2019 18:00:00 19,0 13,1 4 2 18 10 N 1015,8 20
15.06.2019 17:00:00 17,4 13,6 14 8 - - NNW 1015,8 16
15.06.2019 16:00:00 20,1 12,7 11 6 22 12 SSW 1015,2 20
15.06.2019 15:00:00 19,8 12,2 4 2 11 6 N 1015,3 20
15.06.2019 14:00:00 19,3 13,0 4 2 - - N 1015,5 18
15.06.2019 13:00:00 18,0 14,1 4 2 11 6 N 1015,3 20
15.06.2019 12:00:00 16,0 13,9 4 2 11 6 N 1015,0 14
15.06.2019 11:00:00 13,2 13,1 4 2 - - N 1014,6 4,3
15.06.2019 10:00:00 12,6 12,6 4 2 14 8 N 1014,1 2,2
15.06.2019 09:00:00 12,8 12,7 4 2 7 4 N 1013,2 2,7
15.06.2019 08:00:00 12,3 12,3 4 2 - - N 1012,7 2,5
15.06.2019 07:00:00 12,0 11,9 4 2 7 4 N 1011,7 2,3
15.06.2019 06:00:00 11,8 11,8 4 2 14 8 N 1012,1 2,7
15.06.2019 05:00:00 12,1 12,0 7 4 - - NNE 1012,0 2,6
15.06.2019 04:00:00 12,2 12,0 7 4 14 8 NE 1012,2 3,6
15.06.2019 03:00:00 12,1 11,6 7 4 14 8 NNE 1012,3 4,6
15.06.2019 02:00:00 12,4 11,2 4 2 - - N 1012,7 1,7
15.06.2019 01:00:00 14,8 10,2 7 4 11 6 N 1012,5 20
15.06.2019 00:00:00 15,1 11,4 7 4 14 8 NNE 1013,2 20
14.06.2019 23:00:00 15,3 11,2 11 6 - - N 1013,6 20
14.06.2019 22:00:00 16,3 12,3 11 6 18 10 N 1013,2 20
14.06.2019 21:00:00 17,2 12,1 11 6 22 12 N 1013,2 20
14.06.2019 20:00:00 18,9 13,6 11 6 - - NNW 1012,8 20
14.06.2019 19:00:00 21,8 12,3 11 6 22 12 SSW 1012,7 20
14.06.2019 18:00:00 22,2 13,5 11 6 25 14 SSW 1012,8 20
14.06.2019 17:00:00 21,2 12,1 7 4 - - SW 1013,2 20
14.06.2019 16:00:00 20,7 12,5 14 8 25 14 SSW 1013,7 20
14.06.2019 15:00:00 20,5 13,3 14 8 25 14 S 1014,2 17
14.06.2019 14:00:00 20,0 12,9 11 6 - - S 1014,2 19
14.06.2019 13:00:00 19,2 11,6 14 8 29 16 SSW 1014,2 20
14.06.2019 12:00:00 19,2 12,1 14 8 25 14 S 1014,0 7
14.06.2019 11:00:00 18,0 13,2 7 4 - - S 1013,7 19
14.06.2019 10:00:00 15,9 13,3 4 2 7 4 N 1013,2 20
14.06.2019 09:00:00 13,1 11,7 7 4 14 8 N 1013,2 18
14.06.2019 08:00:00 12,7 11,3 7 4 - - SSE 1013,3 19
14.06.2019 07:00:00 12,1 11,1 4 2 11 6 N 1013,0 14
14.06.2019 06:00:00 11,6 10,8 4 2 11 6 N 1013,2 11
14.06.2019 05:00:00 12,1 10,9 7 4 - - SSE 1012,6 12
14.06.2019 04:00:00 11,9 10,8 7 4 18 10 SSE 1012,5 15
14.06.2019 03:00:00 11,7 10,9 7 4 14 8 SE 1012,6 20
14.06.2019 02:00:00 12,3 10,7 7 4 - - SSE 1012,8 20
14.06.2019 01:00:00 12,1 10,4 4 2 11 6 N 1013,1 20
14.06.2019 00:00:00 13,0 10,1 7 4 18 10 S 1013,0 20
13.06.2019 23:00:00 13,3 10,1 11 6 - - SSW 1012,7 20
13.06.2019 22:00:00 13,5 10,1 11 6 18 10 SSW 1012,1 20
13.06.2019 21:00:00 13,8 11,1 7 4 22 12 SSW 1011,2 20
13.06.2019 20:00:00 14,1 11,7 11 6 - - WSW 1011,2 20
13.06.2019 19:00:00 13,8 11,7 11 6 25 14 WSW 1011,1 20
13.06.2019 18:00:00 13,0 9,9 11 6 47 25 W 1010,7 20
13.06.2019 17:00:00 14,3 11,6 25 14 - - SSW 1010,5 15
13.06.2019 16:00:00 13,2 12,4 14 8 29 16 SSW 1010,8 9
13.06.2019 15:00:00 14,5 11,8 18 10 40 21 S 1010,7 20
13.06.2019 14:00:00 14,6 9,8 25 14 - - S 1010,8 20
13.06.2019 13:00:00 15,6 10,6 25 14 47 25 S 1010,8 16
13.06.2019 12:00:00 15,3 9,8 25 14 40 21 SSW 1010,8 20
13.06.2019 11:00:00 14,5 10,0 22 12 - - SSW 1010,7 19

tt = Température de l'air
td = dewpoint
ff = Vitesse du vent
fx = gusts
dd = Direction du vent
ppp = reduced air pressure
vv = visibility

stations d'obs. à proximité